Regional Weather Roundup
Issued by NWS Wakefield, VA

Home | Current Version | Previous Version | Graphics & Text | Print | Product List | Glossary On
Versions: 1 2 3 4 5 6 7 8 9 10 11 12 13 14 15 16 17 18 19 20 21 22 23 24 25 26 27 28 29 30 31 32 33 34 35 36 37 38 39 40 41 42 43 44 45 46 47 48 49 50
000
ASUS41 KAKQ 260710
RWRAKQ

REGIONAL WEATHER ROUNDUP
NATIONAL WEATHER SERVICE WAKEFIELD VA
300 AM EDT SAT JUL 26 2014

Note: "fair" indicates few or no clouds below 12,000 feet with no
significant weather and/or obstructions to visibility. * = Denotes
station may not report precipitation (e.g., rain,snow,etc.),
thunder or fog.

VAZ042-051-052>054-056-260800-
NORTHERN VIRGINIA

CITY           SKY/WX    TMP DP  RH WIND       PRES   REMARKS
WASH NATIONAL  CLOUDY    73  64  73 SE7       30.00F
DULLES         CLOUDY    66  62  87 S3        29.99F
FORT BELVOIR   CLOUDY    64  63  96 SE2       30.00F
QUANTICO       CLOUDY    72  64  76 SW6       30.00F
FREDERICKSBRG* CLOUDY    67  66  94 CALM      30.00S
STAFFORD*      CLOUDY    64  64 100 CALM      30.04F
WARRENTON      CLOUDY    67  67 100 S3        29.99F
CULPEPER*      CLOUDY   N/A N/A N/A CALM      30.00F
MANASSAS*      CLOUDY    66  66 100 SE3       30.00F
LEESBURG*      CLOUDY    70  64  83 CALM      30.00F
WINCHESTER     CLOUDY    68  63  83 CALM      29.99F
$$

VAZ048-049-060>072-079>083-260800-
CENTRAL AND SOUTH CENTRAL VIRGINIA...AND NORTH CENTRAL NORTH CAROLINA

CITY           SKY/WX    TMP DP  RH WIND       PRES   REMARKS
RICHMOND       MOCLDY    69  62  78 CALM      30.01F
CHESTERFIELD*  MOSUNNY  N/A N/A N/A S5        30.03F
HANOVER        MOCLDY    67  63  87 CALM      30.03S
TAPPAHANNOCK*  MOCLDY    66  61  83 CALM      30.02F
CHARLOTTSVILLE CLOUDY    67  64  90 SW3       30.00F
ORANGE*        CLOUDY    66  63  88 CALM      30.02F
LOUISA*        CLOUDY    66  63  88 CALM      30.00F
FARMVILLE*     MOCLDY    64  64 100 CALM      30.00S
SOUTH HILL*    CLEAR     70  70 100 CALM      30.07S
ROANOKE RAPIDS MOSUNNY   66  64  94 CALM      30.02F
RALEIGH        PTCLDY    70  67  90 CALM      30.01F
$$

VAZ088>098-260800-
SOUTHEAST VIRGINIA

CITY           SKY/WX    TMP DP  RH WIND       PRES   REMARKS
NORFOLK        CLEAR     67  60  78 S3        30.02F
VIRGINIA BEACH PTCLDY    66  61  84 CALM      30.01S
NORFOLK NAVAL  CLEAR     72  60  66 S3        30.03F
WEST POINT*    PTCLDY    72  60  67 S5        30.03S
NEWPORT NEWS   CLEAR     72  61  68 SW5       30.02F
LANGLEY AFB    CLEAR     67  64  89 CALM      30.01F
FORT EUSTIS    CLEAR     71  61  70 S6        30.00F
WILLIAMSBURG*  CLEAR     72  63  73 S7        30.03S
FRANKLIN*      PTCLDY    66  63  88 CALM      30.02S
WAKEFIELD      CLEAR     64  61  90 CALM      30.02F
$$

VAZ020-022-025-037-045-260800-
WESTERN AND SOUTHWEST VIRGINIA

CITY           SKY/WX    TMP DP  RH WIND       PRES   REMARKS
STAUNTON*      CLOUDY    66  63  87 CALM      30.04F
HOT SPRINGS VA CLOUDY    62  60  93 SW9       30.15S FOG
LYNCHBURG      CLOUDY    68  66  93 CALM      30.04F
DANVILLE       CLOUDY    69  66  90 CALM      30.02F
MARTINSVILLE   CLOUDY    70  68  94 CALM      30.05F
ROANOKE        CLOUDY    72  66  81 CALM      30.05F
BLACKSBURG     CLOUDY    70  68  94 CALM        N/A
DUBLIN*        MOCLDY    66  65  99 CALM      30.08F FOG
MARION*        MOCLDY   N/A N/A N/A CALM      30.11F
HILLSVILLE*    MOCLDY    65  65  98 S5        30.09F
RICHLANDS*     MOSUNNY   67  59  76 N3        30.09F
WISE*          MOCLDY    64  55  72 CALM      30.10F
ABINGDON*      PTCLDY    63  61  93 CALM      30.07F
$$

MDZ021>025-VAZ099-100-260800-
SOUTHERN MARYLAND AND THE DELMARVA PENINSULA

CITY           SKY/WX    TMP DP  RH WIND       PRES   REMARKS
PATUXENT RIVER CLOUDY    70  63  78 SW3       30.00F
BAY BRIDGE APT   N/A     73  63  68 CALM      30.00S
LEONARDTOWN    CLOUDY    68  61  77 CALM      30.02F
DOVER          PTCLDY    65  61  87 S5        29.99F
GEORGETOWN     PTCLDY    65  60  84 CALM      30.02F
EASTON         CLOUDY    68  61  77 CALM      30.04
CAMBRIDGE      CLOUDY    64  59  82 CALM      30.00F
SALISBURY      NOT AVBL
OCEAN CITY     PTCLDY    62  60  93 CALM      30.01F
WALLOPS ISLAND PTCLDY    65  61  87 CALM      30.02F
ACCOMACK*        N/A     63  59  88 S5        30.02S
$$

NCZ012>017-030>032-260800-
EASTERN NORTH CAROLINA

CITY           SKY/WX    TMP DP  RH WIND       PRES   REMARKS
ELIZABETH CITY MOCLDY    67  63  87 CALM      30.02S
AHOSKIE*       PTCLDY    66  64  93 CALM      30.02F
EDENTON*       MOCLDY    68  64  88 CALM      30.02F
CURRITUCK*     CLEAR     66  57  72 CALM      30.03S
KILL DEVIL HLS CLEAR     74  61  65 SE5       30.00F
MANTEO         NOT AVBL
CAPE HATTERAS  PTCLDY    74  71  91 E5        30.00F
GOLDSBORO      CLEAR     72  71  98 NE1       29.99F
WASHINGTON     CLEAR     70  67  91 CALM      30.02F
GREENVILLE     MOCLDY    72  70  94 CALM      30.03S
NEW BERN       CLEAR     76  71  85 E3        30.01F
WILMINGTON     PTCLDY    73  72  96 CALM      29.99F
$$

VAZ048-260800-
ELSEWHERE

CITY           SKY/WX    TMP DP  RH WIND       PRES   REMARKS
HARRISBURG PA  CLOUDY    67  55  65 E3        29.99F
BALTIMORE      CLOUDY    67  59  75 CALM      30.00S
ANNAPOLIS      CLOUDY    71  62  73 CALM      30.00F
ANDREWS AFB    CLOUDY    67  63  87 S6        30.00F
WILMINGTON DE  MOCLDY    66  56  70 CALM      30.01F
PHILADELPHIA   MOCLDY    70  59  68 SW7       30.01F
WILDWOOD NJ*   PTCLDY    64  59  82 CALM      30.02F
ATLANTIC CITY  PTCLDY    66  63  90 SW6       30.01F
HENDERSON NC   PTCLDY    68  65  92 CALM      30.02F
GREENSBORO     MOCLDY    71  69  93 SW3       30.03F
ROCKY MOUNT    FOG       68  67  96 CALM      30.01F VSB 1/4
FAYETTEVILLE   MOCLDY    74  72  93 CALM      30.00F
CHARLOTTE      PTCLDY    72  69  90 CALM      30.02F
$$

VAZ100-260800-
MARINE

STATION/POSITION TIME  TEMP    WIND        PRES    WAVE   SWELL
                       AIR SEA DIR/SP/G            HT/PER HT/PER
                 (UTC) (F)     (DEG/KT/KT) (MB)    (FT/S) (FT/S)
44066 TX TWR #4  0700   73 74  240/  8/ 10 1016.2F   2/ 7   2/ 7
CAPE MAY NJ      0700   70 77  160/  3/  5 1015.9F
LEWES DE         0700   68 71  200/  3/  5 1016.0F
15NM E FENWICK I 0700   75 76              1016.5F   2/ 8
OCEAN-CITY-INLET 0700   70 71   CALM  /  1 1015.8F
WACHAPREAGUE VA  0700   71 80  230/  4/  7 1016.3R
THOMAS POINT MD  0700   74 79  210/ 14/ 15 1016.2F
GOOSES REEF MD   0700   75     220/ 12/ 16 1016.3F
COVE POINT MD    0700   72     210/  9/ 10 1015.9F
SOLOMONS ISLAND  0700      80                N/A
BISHOPS HEAD MD  0700   76 79  200/  7/  9 1015.7S
PINEY POINT MD   0700          210/  9/ 10   N/A
POTOMAC MD       0700   75     220/ 10/ 12 1015.4F
CAMBRIDGE MD     0700   69 80  180/  2/  4 1015.7F
LEWISETTA VA     0700   72 80  230/  8/ 10 1015.9F
RAPPAHANNOCK LGT 0700          180/ 12/ 15 1016.8R
STINGRAY PT      0700   76     210/ 12/ 14 1017.0R
YORK RVR RNG VA  0700   74     200/ 10/ 11 1015.8F
YORKTOWN VA      0700   71 80  180/  2/  4 1016.0F
JAMESTOWN VA     0700   70     200/  6/ 10   N/A
DOMINION TERM VA 0700   73     190/  8/ 10 1016.5S
KIPTOPEKE VA     0700      81  210/ 10/ 11   N/A
CHES BAY BRIDGE  0700   73 77  170/  7/  9 1015.9R
CAPE HENRY VA    0700   71     190/  6/  7 1015.2F
WILLOUBY STN VA  0700          190/ 10/ 11 1015.5F
S CRANEY ISL VA  0700          160/  5/  7 1016.5S
CAPE HENRY BUOY  0700      77                N/A     2/ 7
1ST LANDING BUOY 0700   73     190/  8/ 10 1016.2R
CAPE CHARLES BUO 0700      76                N/A     2/ 7
OFFSHORE WE BUOY 0700      78                N/A     2/ 8
64NM E OF VA BCH 0700   76 78  160/  8/ 10 1016.2F   2/ 7   2/ 7
DUCK PIER NC     0700   76 77  140/ 12/ 13 1015.6F
44056 DUCK FRF   0700                        N/A     2/ 7
OREGON INLET NC  0700   75 79  130/  4/  7 1016.3F
HATTERAS NC      0700   77 81   90/  5/  9 1016.3F
DIAMOND SHLS NC  0700          VRB 12/ 16  1015.2F   3/ 6   2/ 6
CAPE LOOKOUT NC  0600   79      80/ 11/ 13 1015.8F
$$



USA.gov is the U.S. government's official web portal to all federal, state and local government web resources and services.